Theta_e
310 311 311 310 312 312 312 312 312 312 312 311 310 310 310 310 311 312 312 312 312 312 313 314 314 313 307 298 296 306 315 313 311 313 310 309 308 310 305 307 307 305 306 308 309 309 304
311 311 311 310 313 312 312 312 313 312 311 310 310 310 310 311 311 311 312 312 312 312 313 313 313 313 302 289 305 307 306 308 307 306 305 309 307 312 308 306 305 308 307 307 308 307 307
312 311 310 311 312 311 311 311 311 311 310 310 311 312 312 312 312 312 312 312 312 312 313 313 313 310 299 295 305 306 306 305 306 305 301 307 310 307 310 305 310 307 303 305 305 306 303
312 312 311 311 311 311 311 311 311 310 310 312 313 313 313 312 312 312 312 313 312 313 313 313 313 304 293 306 305 304 304 302 305 308 308 308 311 308 305 310 306 303 302 296 304 305 305
312 312 311 311 311 310 310 310 309 310 312 314 313 314 314 313 313 312 313 312 313 313 313 313 306 302 293 307 301 304 304 300 303 306 308 310 308 303 305 301 297 299 292 295 298 306 305
311 311 310 310 310 310 309 309 310 312 313 313 313 314 314 313 313 312 312 312 312 311 310 306 304 295 298 295 302 304 305 303 300 302 302 301 298 296 297 298 289 292 293 295 295 301 303
311 310 310 309 309 309 309 309 311 312 311 312 312 313 312 312 311 311 308 302 297 296 300 295 294 294 296 301 303 303 306 301 300 297 290 296 291 288 293 298 298 297 295 294 297 302 302
310 310 309 308 308 308 308 309 311 312 311 311 311 311 311 311 311 311 304 297 299 300 291 297 297 296 299 301 293 298 305 296 295 288 293 289 288 293 298 299 298 296 294 294 297 301 302
311 309 308 308 307 308 308 309 311 311 311 311 311 311 310 310 310 305 302 303 307 304 291 293 296 296 298 299 293 294 302 298 292 288 289 286 289 297 296 296 295 296 293 295 295 300 302
309 308 308 308 307 308 307 309 310 310 311 310 310 310 310 311 304 302 299 307 304 302 285 284 293 296 300 301 292 301 303 297 292 288 288 287 291 291 294 295 297 293 299 298 297 295 291
308 307 307 307 307 307 308 309 310 310 311 310 310 309 309 310 300 300 302 303 302 300 270 287 291 302 299 295 296 297 304 299 290 288 288 285 292 292 293 294 300 295 301 298 297 295 294
307 307 307 307 307 306 308 309 310 309 310 311 310 310 310 304 301 302 302 301 301 283 271 282 291 290 290 294 295 297 297 298 300 292 293 290 297 297 297 301 300 300 296 294 293 295 286
307 305 306 306 307 307 308 309 309 309 309 310 310 310 306 304 296 302 301 298 281 275 282 281 284 289 287 287 290 291 293 292 287 284 284 288 288 295 299 295 299 297 294 283 282 282 283
306 304 306 306 306 307 307 309 309 309 309 309 309 308 304 304 303 300 298 286 270 278 282 288 288 287 286 290 292 292 290 288 293 290 286 284 282 287 293 294 291 295 293 284 279 280 283
304 305 306 306 305 307 307 308 309 309 309 308 306 297 298 302 302 298 292 275 277 280 285 285 284 285 285 290 291 290 291 289 292 294 286 284 282 287 294 296 297 290 289 293 285 282 283
304 305 306 305 306 306 306 308 309 309 308 307 293 293 295 301 300 296 280 279 280 288 289 287 281 285 283 287 288 288 288 292 291 295 296 288 282 285 289 295 295 294 294 287 286 280 280
304 305 306 304 306 305 306 308 307 307 307 306 292 286 296 301 297 285 272 281 284 290 290 285 283 283 286 286 288 288 287 292 294 293 295 292 288 283 287 285 286 289 287 289 290 286 282
304 305 305 304 305 305 306 307 306 307 305 300 290 275 296 298 280 285 280 280 290 290 291 289 288 286 286 287 287 288 286 290 295 295 290 292 288 283 284 286 291 292 290 291 286 282 284
304 305 304 304 304 304 306 306 306 306 302 292 286 285 295 294 272 276 283 284 288 287 288 287 287 289 289 286 284 288 289 293 295 294 291 292 286 280 282 286 287 286 290 293 291 288 284
304 305 304 304 304 304 305 306 306 305 303 293 281 274 280 283 284 280 281 276 280 289 288 289 289 291 288 285 288 286 288 292 295 293 295 293 287 284 280 283 288 285 288 292 291 284 285
304 305 304 304 304 303 304 306 305 305 303 290 284 277 279 270 274 280 283 282 281 278 287 290 288 288 287 282 283 284 288 289 292 293 292 290 282 284 285 287 287 288 288 290 288 290 286
304 305 304 304 303 304 306 306 305 304 303 289 278 276 282 271 282 282 283 276 281 283 285 284 285 287 287 285 286 283 287 287 287 290 288 289 283 285 281 286 287 284 288 290 290 291 290
304 304 304 304 303 303 304 305 304 303 299 288 287 286 284 278 280 279 276 281 282 285 287 289 289 286 283 286 289 291 292 292 291 289 287 287 285 283 277 283 284 280 283 288 290 291 291
303 304 305 304 303 303 304 305 304 302 300 291 289 286 280 273 275 277 282 283 283 283 282 286 288 286 287 290 291 290 290 290 291 291 292 287 285 284 279 281 275 283 285 287 288 291 292
304 304 305 303 303 302 303 304 304 302 302 293 291 288 283 273 278 280 281 282 283 284 282 283 286 288 289 289 279 271 274 276 277 286 289 291 287 277 277 276 282 282 283 284 284 283 284
305 304 305 304 303 302 302 303 303 302 304 294 291 292 287 279 276 284 280 282 275 276 281 279 285 289 289 284 275 266 266 267 270 274 289 289 289 282 273 272 272 281 284 287 287 280 284
305 304 305 304 303 302 302 302 303 302 302 295 294 295 288 281 280 283 278 279 283 280 275 278 281 283 286 278 267 268 269 274 268 272 270 279 281 276 273 271 278 284 285 287 277 281 283
304 304 305 304 303 302 302 302 303 302 303 294 293 294 287 283 281 284 286 283 283 282 277 279 279 279 276 274 270 277 269 277 271 274 275 274 276 274 272 271 271 285 285 283 286 285 284
304 304 304 305 304 302 302 302 303 301 301 298 289 294 293 284 282 286 287 287 287 287 284 282 281 280 286 280 278 281 273 279 275 265 280 272 280 275 279 279 286 286 285 288 288 287 286
Wind_Speed
5 6 6 8 9 10 11 13 14 14 14 16 16 16 15 14 15 15 15 14 15 14 14 14 13 8 3 4 12 13 23 15 6 4 13 14 17 14 17 14 14 17 4 5 11 8 10
6 7 7 9 11 9 12 14 14 15 17 18 17 16 15 15 16 16 16 15 14 15 14 13 13 7 4 19 4 10 15 7 10 6 8 14 16 11 10 13 22 15 18 11 10 12 9
8 6 7 9 8 10 12 14 16 17 19 19 18 18 18 17 17 16 16 16 15 15 15 14 13 5 10 20 3 6 4 2 8 10 11 8 18 21 4 11 14 12 10 18 11 11 6
9 7 7 8 9 11 13 14 16 19 20 19 20 19 18 18 16 15 15 15 15 16 15 13 12 4 13 2 13 22 20 21 16 10 11 10 12 18 13 8 14 18 5 7 16 10 8
8 8 7 8 11 13 13 14 17 18 20 19 18 17 17 16 14 13 14 14 17 17 14 14 9 6 10 6 6 10 16 17 7 10 7 9 10 19 14 9 8 15 12 15 17 14 6
7 7 7 9 12 12 13 15 16 19 17 17 18 13 10 9 9 9 11 16 16 12 5 3 2 2 3 6 5 6 13 18 8 5 11 12 8 15 20 15 19 19 25 21 22 20 18
8 7 7 9 11 12 13 15 16 16 15 16 15 13 8 4 4 6 6 5 5 2 2 7 7 11 13 7 15 6 3 10 15 4 11 11 12 22 26 18 13 15 12 20 14 14 15
9 7 7 8 10 11 13 14 15 13 14 14 13 12 10 7 6 6 2 2 4 2 10 12 19 21 22 12 9 14 9 11 11 14 8 2 22 25 14 25 17 19 14 18 4 14 6
9 7 7 9 10 11 12 13 13 11 12 12 12 12 12 10 9 4 3 4 3 3 6 6 5 7 5 11 10 13 10 11 14 15 13 9 5 16 21 20 21 17 22 18 11 5 12
8 8 8 9 10 11 12 12 12 10 8 9 11 13 14 16 2 4 2 4 2 3 4 6 2 2 5 7 8 14 10 5 4 12 6 5 21 17 20 18 23 18 15 14 11 14 10
8 7 8 10 10 10 11 11 11 9 7 7 10 12 15 12 3 3 0 1 2 2 4 4 4 1 6 7 3 7 2 7 14 12 9 10 8 19 20 31 23 15 14 14 15 14 5
10 8 9 10 9 10 11 11 11 10 8 7 10 12 12 2 2 1 3 1 1 1 7 7 4 7 9 4 2 4 6 1 3 5 15 9 4 9 13 21 22 9 13 5 2 12 9
10 9 10 9 9 10 11 11 11 10 8 9 11 13 8 2 3 1 3 1 2 2 5 10 6 8 9 5 1 3 0 7 5 6 5 3 3 1 6 10 12 9 13 3 4 4 4
10 8 8 8 8 8 9 11 10 9 8 10 12 16 5 4 1 3 1 4 4 2 3 4 6 13 4 5 2 4 2 1 1 2 3 4 3 7 8 7 8 15 11 4 6 5 4
9 8 7 6 8 7 8 9 9 8 9 10 12 3 1 2 2 3 2 5 2 2 3 8 13 4 5 5 4 5 3 2 2 6 3 2 4 4 5 4 8 3 8 2 6 2 3
11 10 9 6 6 7 7 8 7 7 9 11 2 2 3 2 5 3 5 1 4 4 3 2 4 5 5 7 4 3 4 3 2 3 2 1 5 3 5 1 5 5 9 5 1 5 4
12 11 8 7 5 5 7 7 4 6 10 6 2 4 3 3 4 6 4 1 5 7 3 2 3 5 5 6 6 5 6 4 6 3 5 2 1 2 2 4 3 4 4 3 4 1 4
13 11 9 7 5 5 6 3 3 6 12 5 2 3 4 3 6 2 2 4 5 3 5 3 4 2 4 5 5 4 3 6 8 2 3 3 3 4 3 2 5 4 4 4 4 5 1
14 11 10 8 5 3 4 2 1 4 7 2 2 3 3 4 3 0 3 4 2 5 4 3 3 2 2 4 3 4 4 8 9 5 2 1 3 4 1 2 2 1 2 2 4 2 5
16 13 11 10 7 4 3 3 0 3 4 4 3 3 5 5 1 5 1 4 4 4 3 4 4 3 2 2 5 4 5 7 7 6 10 4 2 2 1 3 3 3 5 7 2 2 5
17 15 13 11 7 6 4 3 2 0 3 6 3 1 3 1 4 3 1 2 3 5 4 7 3 9 5 5 4 5 5 4 6 6 6 3 3 2 3 3 2 1 7 11 7 3 3
19 16 14 12 10 3 5 7 4 2 4 5 5 5 2 2 2 2 4 3 2 4 5 5 4 5 7 4 4 4 5 5 4 4 3 3 2 2 2 2 2 2 2 8 8 3 6
20 18 16 14 10 7 6 7 4 3 7 3 1 1 4 3 1 3 3 3 3 4 1 4 6 2 5 4 4 4 5 5 3 2 3 3 2 0 1 3 2 3 4 5 3 2 5
22 19 18 16 12 9 7 9 6 3 5 4 3 4 4 2 2 3 0 2 3 3 2 4 5 3 2 6 5 3 4 4 4 7 2 1 1 1 1 3 3 3 0 2 6 3 3
23 22 20 18 15 12 10 8 8 4 3 4 2 4 4 2 2 1 1 0 3 4 4 3 3 2 6 4 4 6 5 6 6 5 5 4 1 3 2 2 3 1 4 3 4 3 3
23 22 20 18 17 14 11 10 10 8 7 4 2 2 4 6 4 1 3 1 2 1 5 5 5 6 5 3 4 3 1 4 6 8 4 2 3 2 2 4 3 2 1 2 2 3 3
24 23 21 19 18 16 13 11 10 8 6 5 3 1 4 4 4 2 3 3 1 2 2 3 6 7 4 4 4 3 2 3 2 2 4 2 2 1 1 1 5 2 3 3 5 1 1
26 24 21 21 19 17 15 12 12 10 12 5 3 0 5 3 3 1 2 2 2 2 3 4 5 5 4 5 3 2 2 2 3 3 1 3 1 2 2 4 3 1 2 4 1 1 3
27 25 23 22 19 19 16 14 13 11 9 7 3 1 2 5 2 2 2 2 2 3 3 3 4 1 3 3 1 0 0 1 0 3 4 2 3 3 4 5 1 1 2 2 3 2 0
Wind_Direction
283 294 306 305 293 303 315 315 310 307 313 317 313 308 306 304 304 307 308 307 304 306 300 295 296 283 31 230 234 267 290 302 295 234 212 223 243 226 205 192 174 209 253 265 275 326 302
270 292 311 299 304 304 313 315 325 320 317 316 311 306 301 299 299 300 302 303 302 301 298 291 288 277 248 257 295 240 257 280 272 249 239 230 239 248 253 201 196 175 220 256 286 293 292
269 286 302 310 319 316 318 317 318 318 317 310 305 299 293 291 290 293 296 295 295 291 286 279 281 266 250 243 251 299 355 255 276 244 228 237 241 256 172 201 185 137 190 234 257 262 261
269 270 294 307 313 312 313 318 321 320 310 306 300 291 284 282 283 286 290 290 287 282 278 276 276 267 259 309 233 248 259 269 258 255 234 235 230 265 259 247 144 191 177 191 220 229 230
278 280 291 302 308 314 322 326 323 317 314 313 312 296 279 274 274 281 289 288 280 274 274 268 258 214 262 334 235 241 232 234 200 229 214 240 215 235 240 202 146 179 202 200 234 237 243
268 267 284 300 311 318 325 326 322 323 330 339 333 325 299 277 276 285 294 289 273 277 269 56 42 283 245 250 240 275 232 222 218 220 231 208 215 228 225 194 203 189 206 192 206 202 237
258 256 275 302 312 318 326 322 326 334 351 351 354 9 13 356 307 310 331 336 29 11 196 223 222 229 264 273 314 282 205 176 202 207 215 185 209 216 214 242 204 200 208 205 204 221 203
247 245 273 297 311 317 323 324 328 348 348 348 1 10 11 354 334 310 319 51 130 276 281 234 252 259 262 258 275 274 165 182 183 202 193 216 230 224 221 216 210 188 191 203 148 198 235
238 236 268 290 311 314 319 322 329 347 349 356 1 359 352 333 311 299 200 121 181 164 276 291 216 259 250 210 225 254 194 198 186 192 193 211 277 236 227 241 228 193 194 188 187 103 213
225 245 271 287 307 313 315 320 324 335 341 352 354 348 342 335 311 315 82 142 167 145 287 275 256 267 269 222 217 227 187 165 184 188 142 236 262 250 225 239 192 209 182 168 169 169 207
232 252 275 290 301 310 309 316 317 324 329 332 339 338 336 329 264 306 157 331 156 150 334 282 294 47 285 270 358 183 175 185 162 152 132 227 248 191 221 222 204 216 192 192 170 180 170
235 256 276 283 294 303 308 313 312 317 313 315 324 322 335 5 305 280 25 359 119 190 257 322 298 328 313 255 180 268 171 333 175 136 205 222 306 191 240 207 201 127 109 78 139 195 227
234 256 276 278 295 302 313 311 312 316 323 318 313 311 319 281 231 31 28 101 11 174 326 317 324 326 320 300 184 290 80 154 145 179 164 118 295 151 240 127 157 156 153 135 135 196 221
230 250 267 273 286 299 306 307 311 317 322 317 314 311 258 196 292 46 356 47 38 251 333 324 301 306 296 327 17 169 155 152 28 140 120 149 121 16 307 151 163 165 161 161 149 188 154
230 244 255 256 279 296 304 308 307 306 313 324 324 311 237 306 122 83 82 52 238 317 291 304 318 292 340 325 323 44 12 170 1 2 86 100 45 317 337 59 161 191 155 67 114 14 126
220 234 263 235 255 283 299 301 300 313 323 341 336 349 275 284 117 85 75 101 283 218 269 291 320 329 325 339 358 357 11 341 51 27 336 71 106 22 324 223 16 168 144 128 329 155 205
215 220 230 232 251 282 300 298 311 329 324 325 57 39 265 9 62 51 106 203 259 245 183 271 305 299 312 346 346 354 343 27 9 13 21 101 46 22 17 16 122 122 124 85 98 155 184
214 219 220 221 242 277 296 283 329 353 336 76 66 40 293 75 51 52 146 191 252 337 203 218 237 265 299 324 341 353 20 337 349 348 32 37 103 73 44 288 330 331 164 153 153 178 134
207 212 217 217 227 251 294 258 352 5 35 93 80 260 325 80 115 61 310 305 292 355 317 1 315 210 221 311 332 8 9 343 357 29 17 149 59 102 56 149 52 128 279 113 90 54 166
205 205 213 212 212 228 238 242 55 7 28 89 76 26 334 44 35 133 153 310 319 330 325 337 22 348 319 345 347 26 12 1 358 34 28 30 76 109 154 118 116 164 175 190 98 134 139
202 201 203 212 204 217 218 203 197 29 41 92 48 151 183 282 332 8 112 251 8 0 340 22 27 18 10 8 19 21 352 346 25 9 13 29 82 83 64 25 43 125 185 181 195 160 164
200 200 198 204 204 186 168 173 182 157 77 82 134 138 164 187 253 326 4 314 28 330 24 9 15 14 35 53 26 347 347 19 13 348 6 317 109 98 66 19 101 115 336 211 207 218 253
198 198 196 199 195 179 172 169 162 165 93 116 250 65 107 289 355 85 238 252 349 348 40 23 324 68 349 350 311 294 314 297 292 329 356 348 123 113 341 325 353 26 223 180 175 224 217
198 196 194 195 187 182 178 160 152 130 155 136 195 117 89 258 85 179 72 355 3 358 303 318 1 356 295 302 277 240 273 8 12 27 49 21 351 43 83 15 57 247 10 204 217 109 240
193 194 193 191 185 179 181 168 147 138 156 101 161 109 120 165 164 332 250 352 333 351 5 310 307 260 304 330 31 29 349 11 343 6 354 10 30 65 117 136 296 319 2 21 25 59 21
190 192 191 185 184 177 177 170 150 143 133 92 77 131 114 121 248 224 159 131 184 1 329 290 307 304 4 44 60 97 82 207 316 339 329 65 23 109 54 115 171 275 28 356 287 56 0
188 190 189 181 182 176 173 168 158 154 146 109 114 58 98 109 278 92 152 181 162 92 160 309 327 350 12 18 61 66 314 194 20 334 302 353 27 71 295 115 309 309 328 310 67 263 269
184 187 184 180 179 178 174 167 161 158 140 103 124 57 116 124 284 19 20 115 31 74 118 267 20 341 22 57 89 10 67 4 332 261 222 166 131 236 33 56 334 336 24 67 279 13 11
180 184 181 178 176 179 176 170 161 159 153 121 111 287 86 86 177 3 52 85 83 129 137 33 157 295 29 83 19 349 311 352 32 292 325 323 177 212 162 217 324 354 137 162 137 130 245